Content
SEND FEEDBACK

Daily
Averages
Monthly
Summary
United States of America

YIGO, GUAM


Home > North America > United States > Guam
Elevation: 530 feet     Latitude: 13 32N     Longitude: 144 53E

WEATHER
 
SELECT A DAY
Number of Records: 213,928;   Date Range: 1/1/95 - 10/24/14
 
SHARE

PRINT THIS DATA

[ ← Previous Day ]
WEATHER ALMANAC - JANUARY 31, 2013
[ Next Day → ]
[ °C ]   °F
Weather ElementAverageHighLow
Temperature77.2 °F82 °F (11:54 am)73.4 °F (6:37 pm)
Dewpoint73.1 °F75.2 °F (9:32 am)69.1 °F (11:54 pm)
Humidity87.4 %100 % (6:37 pm)69 % (11:54 am)
Barometer30.01 in30.07 in (9:15 am)29.95 in (2:54 pm)
Wind Speed17.9 mph26.5 mph (2:54 pm)
Wind Gust35.7 mph (12:47 pm)
Weather ElementAverage
Visibility8.5 mi
Wind DirectionNE (45.7 °)

Weather ElementTotal
Precipitation0.40 in
Cooling Degree Days12.7 (Base 65)
Growing Degree Days27.7 (Base 50)
Averaged from 46 records on January 31, 2013
WEATHER CONDITIONS BREAKOUT
WIND DIRECTION BREAKOUT
WEATHER BY HOUR - JANUARY 31, 2013
[ °C ]   °F
Local TimeTemperatureDewpointHumidityBarometerVisibilityWind DirectionWind SpeedGust SpeedPrecipitationEventsConditions
1:54 AM78.1 °F73.9 °F87 %29.97 in10.0 miENE (70°)11.5 mph0.00 inRainLight Rain
2:19 AM78.8 °F73.4 °F83 %29.99 in4.0 miENE (70°)15.0 mph0.04 inRainHeavy Rain
2:43 AM77.0 °F73.4 °F89 %29.98 in10.0 miEast (80°)11.5 mph0.06 inOvercast
2:54 AM78.1 °F73.9 °F87 %29.96 in10.0 miENE (70°)12.7 mph0.06 inOvercast
3:54 AM78.1 °F73.0 °F84 %29.96 in10.0 miENE (70°)11.5 mphMostly Cloudy
4:54 AM77.0 °F73.0 °F88 %29.97 in9.0 miENE (60°)15.0 mph0.00 inRainLight Rain
5:54 AM75.9 °F73.9 °F94 %30.00 in6.0 miENE (60°)20.7 mph24.2 mph0.01 inRainRain
6:02 AM75.2 °F73.4 °F94 %30.02 in5.0 miENE (60°)17.3 mph0.02 inRainLight Rain
6:54 AM75.9 °F73.0 °F91 %30.01 in10.0 miENE (60°)11.5 mph0.02 inScattered Clouds
7:54 AM77.0 °F73.0 °F88 %30.03 in9.0 miENE (60°)17.3 mph25.3 mph0.00 inRainLight Rain
8:54 AM75.9 °F73.9 °F94 %30.04 in3.0 miENE (70°)17.3 mph25.3 mph0.03 inRainLight Rain
9:15 AM75.2 °F73.4 °F94 %30.07 in4.0 miENE (70°)18.4 mph26.5 mph0.03 inRainLight Rain
9:32 AM77.0 °F75.2 °F94 %30.07 in10.0 miNE (40°)13.8 mph0.05 inMostly Cloudy
9:54 AM79.0 °F73.9 °F84 %30.04 in10.0 miNE (50°)16.1 mph24.2 mph0.05 inMostly Cloudy
10:42 AM78.8 °F73.4 °F83 %30.05 in10.0 miNE (40°)21.9 mph26.5 mph0.00 inMostly Cloudy
10:54 AM81.0 °F73.9 °F79 %30.03 in10.0 miENE (60°)23.0 mph0.00 inMostly Cloudy
11:27 AM80.6 °F71.6 °F74 %30.04 in10.0 miNE (50°)25.3 mph32.2 mphMostly Cloudy
11:54 AM82.0 °F71.1 °F69 %30.01 in10.0 miNE (50°)25.3 mph33.4 mphMostly Cloudy
12:47 PM78.8 °F73.4 °F83 %30.02 in6.0 miNE (50°)25.3 mph35.7 mph0.00 inRainLight Rain
12:54 PM78.1 °F75.0 °F90 %29.99 in7.0 miNE (50°)19.6 mph35.7 mph0.00 inRainLight Rain
1:30 PM78.8 °F75.2 °F89 %30.00 in6.0 miNE (50°)19.6 mph23.0 mph0.00 inRainLight Rain
1:45 PM78.8 °F75.2 °F89 %29.99 in7.0 miNE (40°)19.6 mph26.5 mph0.00 inRainLight Rain
1:54 PM79.0 °F75.0 °F88 %29.97 in10.0 miNE (40°)24.2 mph29.9 mph0.00 inMostly Cloudy
1:57 PM78.8 °F75.2 °F89 %29.99 in10.0 miNE (50°)23.0 mph29.9 mphMostly Cloudy
2:08 PM80.6 °F73.4 °F79 %29.98 in9.0 miNE (50°)24.2 mph32.2 mphMostly Cloudy
2:24 PM80.6 °F73.4 °F79 %29.98 in10.0 miNE (50°)24.2 mph31.1 mphScattered Clouds
2:54 PM82.0 °F72.0 °F71 %29.95 in10.0 miNE (50°)26.5 mph29.9 mphMostly Cloudy
3:08 PM80.6 °F71.6 °F74 %29.97 in10.0 miNE (40°)25.3 mph31.1 mphMostly Cloudy
3:54 PM80.1 °F71.1 °F74 %29.96 in10.0 miNE (40°)20.7 mphMostly Cloudy
4:23 PM80.6 °F71.6 °F74 %29.98 in9.0 miNNE (30°)18.4 mph28.8 mphOvercast
4:34 PM77.0 °F73.4 °F89 %29.98 in5.0 miNNE (30°)20.7 mph28.8 mph0.00 inOvercast
4:54 PM77.0 °F73.0 °F88 %29.97 in5.0 miNE (40°)18.4 mph25.3 mph0.00 inRainLight Rain
5:54 PM75.0 °F73.0 °F94 %29.98 in10.0 miNNE (30°)16.1 mph23.0 mph0.01 inOvercast
6:29 PM75.2 °F73.4 °F94 %30.01 in9.0 miNNE (30°)19.6 mph27.6 mph0.00 inRainLight Rain
6:37 PM73.4 °F73.4 °F100 %30.01 in9.0 miNE (40°)16.1 mph27.6 mph0.00 inOvercast
6:51 PM73.4 °F73.4 °F100 %30.01 in10.0 miNNE (30°)13.8 mph0.00 inOvercast
6:54 PM75.0 °F73.0 °F94 %30.00 in6.0 miNNE (30°)16.1 mph0.00 inRainLight Rain
7:19 PM75.2 °F73.4 °F94 %30.02 in10.0 miNNE (20°)12.7 mph21.9 mph0.01 inOvercast
7:54 PM75.0 °F73.0 °F94 %30.01 in10.0 miNNE (20°)16.1 mph20.7 mph0.01 inOvercast
8:41 PM73.4 °F73.4 °F100 %30.05 in10.0 miNNE (30°)15.0 mph18.4 mph0.00 inOvercast
8:54 PM73.9 °F72.0 °F93 %30.03 in6.0 miNNE (30°)18.4 mph25.3 mph0.00 inRainLight Rain
9:54 PM73.9 °F72.0 °F93 %30.05 in10.0 miNNE (20°)10.4 mphOvercast
10:03 PM73.4 °F71.6 °F94 %30.07 in8.0 miNE (40°)17.3 mph23.0 mph0.00 inRainLight Rain
10:16 PM73.4 °F71.6 °F94 %30.07 in10.0 miNNE (20°)11.5 mph0.00 inOvercast
10:54 PM75.0 °F70.0 °F84 %30.05 in10.0 miNNE (30°)13.8 mph0.00 inOvercast
11:54 PM75.9 °F69.1 °F79 %30.04 in10.0 miNNE (30°)11.5 mphOvercast
Hourly data recorded from PGUM, located miles away from Yigo, Guam







STORIES FROM OUR PARTNERS